Regional Weather Roundup
Issued by NWS Albany, NY

Home | Current Version | Previous Version | Graphics & Text | Print | Product List | Glossary Off
Versions: 1 2 3 4 5 6 7 8 9 10 11 12 13 14 15 16 17 18 19 20 21 22 23 24 25 26 27 28 29 30 31 32 33 34 35 36 37 38 39 40 41 42 43 44 45 46 47 48 49 50

038
ASUS41 KALY 251310
RWRALY

NEW YORK STATE HOURLY WEATHER ROUNDUP
NATIONAL WEATHER SERVICE ALBANY NY
900 AM EDT SUN SEP 25 2016

NOTE: "FAIR" INDICATES FEW OR NO CLOUDS BELOW 12,000 FEET WITH NO
SIGNIFICANT WEATHER AND/OR NO OBSTRUCTIONS TO VISIBILITY.

NYZ032-033-038>043-046>054-057>066-NYZ062>081-082-084-251400-
EAST


CITY           SKY/WX    TMP DP  RH WIND       PRES   REMARKS
ALBANY         SUNNY     50  41  71 NW5       30.23S
GLENS FALLS    SUNNY     52  38  58 NW7       30.21S
POUGHKEEPSIE   SUNNY     51  42  71 N5        30.21S
NEWBURGH       SUNNY     52  45  76 VRB5      30.22S
MONTGOMERY     SUNNY     52  44  74 CALM      30.21S
WHITE PLAINS   SUNNY     56  39  53 N8        30.19F
ISLIP          SUNNY     59  42  53 N12       30.18S
NEW YORK CITY  SUNNY     60  42  51 N9        30.20R
CENTRAL PARK   SUNNY     57  42  57 CALM      30.23S
$$

NYZ005>009-017-018-044>046-055-056-251400-
CENTRAL


CITY           SKY/WX    TMP DP  RH WIND       PRES   REMARKS
FULTON         SUNNY     51  40  65 CALM      30.27R
SYRACUSE       MOSUNNY   49  42  77 CALM      30.26R
ROME           SUNNY     44  41  89 CALM      30.28R
ELMIRA         CLOUDY    43  40  89 W5        30.25S FOG
BINGHAMTON     SUNNY     45  40  82 W3        30.23R
MONTICELLO     SUNNY     48  43  81 W6        30.22S
$$

NYZ026>034-041>043-087-251400-
NORTH


CITY           SKY/WX    TMP DP  RH WIND       PRES   REMARKS
WATERTOWN      SUNNY     46  41  82 E3        30.28R
FORT DRUM      NOT AVBL
OGDENSBURG     FAIR      47  46  93 CALM      30.26R
MASSENA        SUNNY     46  39  76 SW5       30.26S
SARANAC LAKE   SUNNY     39  37  92 CALM      30.21R
PLATTSBURGH    SUNNY     53  37  54 NW7       30.20S
$$

NYZ001>004-010>016-019>021-085-251400-
WEST


CITY           SKY/WX    TMP DP  RH WIND       PRES   REMARKS
NIAGARA FALLS  MOSUNNY   54  44  69 E6        30.26R
BUFFALO        MOSUNNY   50  42  74 SE3       30.26R
DUNKIRK        SUNNY     52  45  77 CALM      30.25R
JAMESTOWN      SUNNY     46  39  76 S3        30.25R
WELLSVILLE     SUNNY     46  42  86 CALM      30.27R
ROCHESTER      MOSUNNY   49  44  83 SW3       30.26S
PENN YAN       SUNNY     50  46  86 CALM      30.26R
$$

             KEY
       WCI = WIND CHILL INDEX
       VSB = VISIBILITY
       HX  = HEAT INDEX
$$




USA.gov is the U.S. government's official web portal to all federal, state and local government web resources and services.